Flag for U.S.A. Weather past 2 weeks in Greeley, Colorado, U.S.A.

Now
63 °F

Mild.


Feels Like: 63 °F
Forecast: 53 / 77 °F
Wind: 6 mph from West

Location: Greeley / Weld

Current Time: Sep 20, 2014 at 12:05:47 AM

Latest Report: Sep 19, 2014 at 11:35 PM


Visibility: 10 mi

Pressure: 30.05 "Hg

Humidity: 59%

Dew point: 48 °F

Location of GreeleyLocation

Historic Weather in Greeley — Graph

°F

Greeley temperature yesterday

Maximum temperature yesterday: 90 °F (at 2:35 PM)
Minimum temperature yesterday: 50 °F (at 5:15 AM)
Average temperature yesterday: 71 °F

Past Weeks' High & Low Weather Summary

 TemperatureHumidityPressure
High91 °F (Sep 18, 3:15 PM)88% (Sep 5, 3:15 AM)30.53 "Hg (Sep 5, 3:15 AM)
Low28 °F (Sep 13, 6:55 AM)13% (Sep 16, 5:35 PM)29.86 "Hg (Sep 9, 10:35 AM)
Average59 °F58%30.14 "Hg
* Reported Sep 4 10:35 PM — Sep 19 10:55 PM, Greeley, Weather by CustomWeather, © 2014

Note: Actual official high and low records may vary slightly from our data, if they occured in-between our weather recording intervals... More about our weather records

Advertising

Greeley weather history for previous 24 hours

 ConditionsComfort  
Time TempWeatherWind HumidityBarometerVisibility
10:55 PM
Sep 19
64 °FPassing clouds.10 mph56%30.03 "Hg10 mi
10:35 PM64 °FPassing clouds.5 mph56%30.03 "Hg10 mi
10:15 PM66 °FPassing clouds.5 mph52%30.02 "Hg10 mi
9:55 PM66 °FMild.7 mph52%30.02 "Hg10 mi
9:35 PMN/AN/AN/AN/A10 mi
8:55 PM72 °FPassing clouds.9 mph44%30.01 "Hg10 mi
8:35 PM72 °FPassing clouds.8 mph41%30.00 "Hg10 mi
8:15 PM72 °FPassing clouds.5 mph41%30.00 "Hg10 mi
7:55 PM72 °FPassing clouds.3 mph41%29.98 "Hg3 mi
7:15 PM75 °FSunny.8 mph34%29.97 "Hg10 mi
6:55 PM79 °FSunny.12 mph30%29.96 "Hg10 mi
6:35 PM81 °FSunny.16 mph28%29.96 "Hg9 mi
6:15 PM84 °FSunny.13 mph27%29.94 "Hg10 mi
5:55 PM86 °FSunny.5 mph25%29.93 "Hg10 mi
5:35 PM88 °FSunny.No wind22%29.91 "Hg10 mi
5:15 PM88 °FSunny.6 mph22%29.91 "Hg10 mi
4:55 PM88 °FPassing clouds.5 mph22%29.92 "Hg10 mi
4:35 PM88 °FSunny.6 mph21%29.92 "Hg10 mi
4:15 PM88 °FSunny.5 mph21%29.92 "Hg10 mi
3:55 PM90 °FSunny.3 mph20%29.92 "Hg10 mi
3:35 PM90 °FSunny.5 mph20%29.92 "Hg10 mi
3:15 PM90 °FSunny.7 mph21%29.93 "Hg10 mi
2:55 PM90 °FSunny.7 mph22%29.93 "Hg10 mi
2:35 PM90 °FSunny.8 mph21%29.93 "Hg10 mi
2:15 PM88 °FSunny.6 mph22%29.94 "Hg10 mi
1:55 PM88 °FSunny.8 mph24%29.95 "Hg10 mi
1:35 PM88 °FSunny.6 mph24%29.96 "Hg10 mi
1:15 PM88 °FSunny.10 mph24%29.96 "Hg10 mi
12:55 PM88 °FSunny.7 mph24%29.97 "Hg9 mi
12:35 PM86 °FSunny.5 mph24%29.97 "Hg7 mi
11:55 AM84 °FSunny.7 mph25%29.98 "Hg10 mi
11:35 AM84 °FSunny.9 mph25%29.98 "Hg10 mi
11:15 AM84 °FSunny.12 mph25%29.98 "Hg10 mi
10:55 AM82 °FSunny.13 mph26%29.99 "Hg10 mi
10:35 AM82 °FSunny.10 mph26%29.99 "Hg10 mi
10:15 AM82 °FSunny.15 mph26%30.00 "Hg10 mi
9:55 AM79 °FSunny.9 mph32%30.00 "Hg10 mi
9:35 AM73 °FSunny.6 mph41%30.00 "Hg10 mi
9:15 AM72 °FMild.10 mph44%30.00 "Hg9 mi
8:35 AM64 °FSunny.3 mph52%30.00 "Hg10 mi
7:55 AM55 °FSunny.5 mph63%29.99 "Hg10 mi
7:35 AM54 °FClear.6 mph63%29.98 "Hg10 mi
7:15 AM50 °FClear.9 mph67%29.98 "Hg10 mi
6:55 AM50 °FClear.3 mph67%29.96 "Hg10 mi
6:35 AM50 °FClear.6 mph67%29.95 "Hg10 mi
6:15 AM50 °FClear.6 mph67%29.95 "Hg10 mi
5:55 AM50 °FClear.6 mph67%29.94 "Hg10 mi
5:35 AM52 °FClear.No wind62%29.93 "Hg10 mi
5:15 AM50 °FClear.6 mph67%29.93 "Hg10 mi
4:55 AM52 °FClear.6 mph62%29.93 "Hg10 mi
4:35 AM52 °FClear.6 mph62%29.92 "Hg10 mi
4:15 AM52 °FClear.5 mph67%29.92 "Hg10 mi
3:55 AM52 °FClear.5 mph62%29.92 "Hg10 mi
3:35 AM52 °FClear.7 mph62%29.92 "Hg10 mi
3:15 AM52 °FClear.No wind58%29.92 "Hg10 mi
2:55 AM55 °FClear.No wind55%29.92 "Hg10 mi
2:35 AM54 °FClear.3 mph58%29.92 "Hg10 mi
1:55 AM55 °FClear.3 mph51%29.93 "Hg10 mi
1:35 AM57 °FClear.No wind51%29.93 "Hg10 mi
1:15 AM63 °FClear.No wind42%29.93 "Hg10 mi
12:55 AM63 °FClear.No wind42%29.93 "Hg10 mi
12:35 AM66 °FClear.5 mph37%29.92 "Hg10 mi
Weather by CustomWeather, © 2014

See weather overviewHow to use our weather pages